Погода Ростов Великий

Погода Ростов Великий : погода сейчас, прогноз погоды и архив. Всё, что Вы хотите узнать о погоде Ростов Великий!

Хотите узнать прогноз погоды Ростов Великий? Тогда Вам сюда: Погода Ростов Великий

Поиск расширенной информации на нашем сайте:

Полезная информация:

Другие новости

Новости СМИ2

Главная страница сайта

Новости сайта

03.07.2017

Напоминаем, что на нашем специализированном сайте Метеоцентр.Азия вы можете получить высокодетализированные автоматические прогнозы погоды по пунктам России, СНГ и мира в авиационном формате (включающие направление и скорость ветра, видимость, явления погоды, количество и форму облачности, нижнюю и верхнюю границу облачности).

Рекомендуем:

Погода Ростов Великий - сегодня

Время (UTC), дата Ветер
(°,м/с) 
Видим.   Явления Облачность Т
(°С)
Тd
(°С)
f(%) Тe
(°С)
Pmin
(гПа)
dP
(гПа)
Po
(мм)
O2
(г/м3)
Тmin Tmax R s Состояние
почвы
21 18.05.19 360 (С) 50000 м    ясно 
+10.4 +3.5 62 +12  1016.2  1.2  753  292           
00 19.05.19 тихо ()   50000 м    ясно 
+5.4 +2.7 83 +5  1017.6  1.2  754  297           
03 19.05.19 тихо ()   50000 м    ясно 
+7.5 +3.4 75 +8  1018.5  0.9  755  295  +4.9        влажная 
06 19.05.19 030 (СВ) 50000 м    1/1 600 м 
[Cu hum]
+12.4 +1.5 47 +12  1018.3  755  291           
09 19.05.19 340 (С) 50000 м    1/1 600 м 
[Cu hum]
+14.8 -0.4 35 +15  1018.2  755  288           
12 19.05.19 360 (С) 3{10}  50000 м    1/0 верхняя 
[Ci fib]
+15.6 -0.4 33 +16  1018.6  0.4  755  288           
15 19.05.19 340 (С) 50000 м    1/1 600 м 
[Sc]
+14.9 -1.1 33 +15  1019.4  0.8  756  289    +15.7       
18 19.05.19 тихо ()   50000 м    1/1 600 м 
[Sc]
+9.7 +0 51 +10  1020  0.3  756  294           
21 19.05.19 тихо ()   50000 м    ясно 
+4.1 +1.1 81 +4  1020.8  0.5  756  300           
00 20.05.19 350 (С) 50000 м    ясно 
+1.9 +0.2 88 +3  1022.7  1.8  758  303           
03 20.05.19 330 (СЗ) 50000 м    1/0 верхняя 
[Ci fib]
+4.9 +0.3 72 +6  1023.1  0.5  758  300  +1.8        влажная 
06 20.05.19 330 (СЗ) 50000 м    1/0 верхняя 
[Ci fib]
+13 -1 38 +13  1022.8  0.1  758  292           
09 20.05.19 010 (С) 50000 м    1/0 верхняя 
[Ci fib]
+16.2 -0.9 31 +17  1022.1  -0.6  758  288           
12 20.05.19 350 (С) 50000 м    1/0 верхняя 
[Ci fib]
+18.5 -0.6 27 +19  1021  -0.9  757  286           
15 20.05.19 360 (С) 50000 м    1/0 верхняя 
[Ci fib]
+17.9 -4 22 +19  1020.5  -0.6  756  286    +18.8       
18 20.05.19 тихо ()   50000 м    1/0 верхняя 
[Ci fib]
+11.6 +0.5 46 +12  1021  0.3  757  292           
21 20.05.19 тихо ()   50000 м    ясно 
+5.8 +2.5 79 +6  1021.7  0.4  757  298           
00 21.05.19 тихо ()   50000 м    8/0 средняя 
[Ac trans]
+5 +2.7 85 +5  1021.7  757  299           
03 21.05.19 тихо ()   50000 м    10/0 средняя 
[Ac und]
+6.8 +4.6 86 +7  1022.1  0.5  757  297  +4.4        влажная 
06 21.05.19 тихо ()   40000 м    10/0 средняя 
[Ac und]
+11.7 +5.4 65 +12  1021.7  -0.2  757  292           
09 21.05.19 120 (ЮВ) 50000 м    6/3 600 м верхняя 
[Sc|Ci fib]
+16.9 +3.7 41 +18  1020.3  -1.2  756  286           
12 21.05.19 160 (Ю) 50000 м    1/0 верхняя 
[Ci fib]
+19.4 +4.4 37 +20  1018.2  -1.9  755  283           
15 21.05.19 220 (ЮЗ) 50000 м    4/3 600 м верхняя 
[Sc|Ci fib]
+21.1 +5.3 36 +21  1015.4  -2.7  753  281    +21.1       
18 21.05.19 010 (С) 28000 м  {ливн. осадки}  10/8 600 м кучево-дожд., верхняя 
[Cb cap|Ci fib]
+14.7 +10.6 76 +17  1016.2  0.6  753  286           
21 21.05.19 210 (ЮЗ) 28000 м  слаб. ливневой дождь  10/5 600 м кучево-дожд., верхняя 
[Cb calv|Ci fib]
+13.2 +12.1 93 +18  1014.5  -1.7  752  287           
Время (UTC), дата Ветер
(°,м/с) 
Видим.   Явления Облачность Т
(°С)
Тd
(°С)
f(%) Тe
(°С)
Pmin
(гПа)
dP
(гПа)
Po
(мм)
O2
(г/м3)
Тmin Tmax R s Состояние
почвы

Для получения пояснительной информации подведите курсор к названию столбца.

ПОГОДА Ростов Великий - архив

Всё, что Вы хотите узнать о погоде Ростов Великий - удобно и подробно!

Выберите нужную дату (начиная с 1 января 2018* года) и нажмите кнопку "Найти".
Будут отображены архивные сводки погоды по пункту Ростов Великий, начиная с указанной даты.


Отображать данные в формате CSV (для использования в таблицах Excel)


Внимание! Наш архив погоды предназначен исключительно для личного некоммерческого использования в познавательных целях. Если Вам необходимы официальные справки о состоянии погоды (для производственных, юридических, коммерческих и т.п. целей), обращайтесь в органы Росгидромета.

*Примечание: данная дата относится к архиву по метеостанциям СССР (Россия, СНГ, Балтия).
Архив по метеостанциям Зарубежной Европы и Азии (кроме Китая) хранится 10 дней, по другим регионам земного шара (Китай, Африка, Америка, Австралия, Океания) - 1 день.

Ростов Великий - район местоположения метеостанции


Название, широта, долгота, высота метеостанции:
Ростов Великий 57.2°ш. 39.4°д. 101 м над ур. моря [Российская Федерация]

Дополнительная информация

В oтличие oт бoльшинства пoгoдных сайтoв мы публикуем пoдрoбную метеoинфoрмацию в детальнoм прoфессиoнальнoм фoрмате.

Характеристики температуры и влажнoсти вoздуха измеряются на высoте 2 м в тени вдали oт зданий и деревьев.
Скoрoсть ветра измеряется на высoте 10 м (на урoвне рoста челoвека скoрoсть ветра ниже в 1.5-2 раза). Если метеoстанция нахoдится в гoрoде или в лесу, тo скoрoсть ветра занижена на 2-4 м/с пo сравнению с oткрытым местoм. Скoрoсть ветра над акватoриями крупных рек и oзёр, а также на вершинах хoлмoв на 2-5 м/с выше, чем в oбычных услoвиях.
Атмoсфернoе давление в разных тoчках местнoсти мoжет значительнo oтличаться oт давления на метеoстанции, в зависимoсти oт услoвий рельефа (при пoдъёме на 10 м давление пoнижается примернo на 1 мм рт.ст.).